CW6421 Weather Reports


Display with metric or nautical units.
time (UTC)temp
F
wind
direction
speed
MPH
gust
MPH
rain 1hr
in
rain 24hr
in
rain mn
in
humidity
%
barometer
mb
20190920200052 59 247 8.0 11.0 0.00 0.00 0.00 64 1026.8
20190920195028 59 245 8.0 10.0 0.00 0.00 0.00 64 1028.2
20190920194027 60 232 9.0 12.0 0.00 0.00 0.00 64 1026.8
20190920193037 60 233 8.0 9.0 0.00 0.00 0.00 64 1026.7
20190920192034 60 250 6.0 9.0 0.00 0.00 0.00 65 1026.6
20190920191030 60 241 7.0 8.0 0.00 0.00 0.00 65 1026.7
20190920190043 60 244 7.0 9.0 0.00 0.00 0.00 65 1026.7
20190920185035 60 265 5.0 8.0 0.00 0.00 0.00 65 1026.8
20190920184028 60 279 4.0 10.0 0.00 0.00 0.00 65 1026.7
20190920183040 60 268 4.0 11.0 0.00 0.00 0.00 65 1026.8
20190920182030 60 245 6.0 11.0 0.00 0.00 0.00 65 1026.7
20190920181031 60 248 8.0 11.0 0.00 0.00 0.00 64 1026.6
20190920180045 60 256 6.0 10.0 0.00 0.00 0.00 64 1026.5
20190920175027 60 287 4.0 10.0 0.00 0.00 0.00 65 1026.7
20190920174038 60 285 4.0 11.0 0.00 0.00 0.00 65 1026.3
20190920173038 60 289 4.0 16.0 0.00 0.00 0.00 64 1026.8
20190920172033 60 285 6.0 14.0 0.00 0.00 0.00 64 1026.8
20190920171029 60 289 6.0 15.0 0.00 0.00 0.00 64 1026.3
20190920170037 60 270 6.0 17.0 0.00 0.00 0.00 64 1026.5
20190920165029 60 298 7.0 15.0 0.00 0.00 0.00 64 1026.6
20190920164032 60 296 7.0 17.0 0.00 0.00 0.00 64 1026.3
20190920163035 61 288 7.0 16.0 0.00 0.00 0.00 63 1027.1
20190920161029 61 277 8.0 17.0 0.00 0.00 0.00 63 1026.6
20190920160040 61 287 9.0 16.0 0.00 0.00 0.00 62 1026.7
20190920155032 61 294 10.0 17.0 0.00 0.00 0.00 62 1026.6
20190920154026 61 290 10.0 18.0 0.00 0.00 0.00 61 1026.8
20190920153037 61 287 10.0 20.0 0.00 0.00 0.00 61 1026.5
20190920152027 62 300 7.0 19.0 0.00 0.00 0.00 61 1027.0
20190920151030 62 300 8.0 20.0 0.00 0.00 0.00 60 1026.3
20190920150036 62 281 8.0 20.0 0.00 0.00 0.00 61 1027.1
20190920145034 62 290 8.0 16.0 0.00 0.00 0.00 61 1026.8
20190920144029 62 298 9.0 19.0 0.00 0.00 0.00 60 1026.8
20190920142040 62 286 9.0 13.0 0.00 0.00 0.00 60 1027.0
20190920141031 63 276 9.0 14.0 0.00 0.00 0.00 59 1027.3
20190920140046 63 283 9.0 13.0 0.00 0.00 0.00 59 1027.2
20190920135028 63 299 11.0 13.0 0.00 0.00 0.00 58 1028.3
20190920134027 64 300 11.0 13.0 0.00 0.00 0.00 59 1027.5
20190920133034 63 280 10.0 16.0 0.00 0.00 0.00 59 1028.0
20190920132032 62 257 9.0 16.0 0.00 0.00 0.00 60 1028.0
20190920131031 62 266 10.0 17.0 0.00 0.00 0.00 58 1027.8
20190920130040 62 266 9.0 16.0 0.00 0.00 0.00 60 1028.1
20190920125027 62 286 9.0 15.0 0.00 0.00 0.00 61 1028.0
20190920124025 61 276 8.0 17.0 0.00 0.00 0.00 62 1028.3
20190920123040 60 286 8.0 17.0 0.00 0.00 0.00 61 1028.5
20190920122028 60 274 9.0 16.0 0.00 0.00 0.00 61 1028.3
20190920121028 59 288 10.0 18.0 0.00 0.00 0.00 63 1028.5
20190920120040 59 276 9.0 17.0 0.00 0.00 0.00 63 1028.5
20190920115040 59 283 10.0 18.0 0.00 0.00 0.00 64 1028.3
20190920114030 59 281 9.0 15.0 0.00 0.00 0.00 65 1028.5
20190920113045 58 277 8.0 15.0 0.00 0.00 0.00 66 1028.5
20190920112028 58 305 9.0 13.0 0.00 0.00 0.00 66 1028.7
20190920111033 58 305 8.0 13.0 0.00 0.00 0.00 66 1028.7
20190920110038 58 296 8.0 14.0 0.00 0.00 0.00 67 1029.0
20190920105028 57 304 8.0 14.0 0.00 0.00 0.00 68 1028.6
20190920104033 58 295 7.0 14.0 0.00 0.00 0.00 69 1028.8
20190920103037 58 293 9.0 11.0 0.00 0.00 0.00 70 1028.7
20190920102031 58 288 11.0 13.0 0.00 0.00 0.00 71 1028.8
20190920101034 57 298 11.0 12.0 0.00 0.00 0.00 71 1028.8
20190920100046 57 296 11.0 12.0 0.00 0.00 0.00 71 1028.8
20190920095030 57 283 7.0 12.0 0.00 0.00 0.00 74 1029.1
20190920094031 57 287 6.0 11.0 0.00 0.00 0.00 74 1029.0
20190920093039 56 273 8.0 11.0 0.00 0.00 0.00 76 1029.0
20190920092027 56 274 8.0 10.0 0.00 0.00 0.00 76 1028.8
20190920091029 55 278 8.0 11.0 0.00 0.00 0.00 78 1028.8
20190920090038 54 271 8.0 11.0 0.00 0.00 0.00 78 1028.7
20190920085026 54 308 6.0 10.0 0.00 0.00 0.00 79 1028.8
20190920084032 54 309 5.0 10.0 0.00 0.00 0.00 79 1028.7
20190920083038 53 295 6.0 11.0 0.00 0.00 0.00 80 1028.8
20190920082027 52 260 7.0 10.0 0.00 0.00 0.00 81 1028.7
20190920081027 52 269 8.0 11.0 0.00 0.00 0.00 81 1028.8
20190920075030 51 256 6.0 11.0 0.00 0.00 0.00 82 1028.8
20190920074028 50 262 6.0 10.0 0.00 0.00 0.00 83 1028.7
20190920073037 49 268 6.0 8.0 0.00 0.00 0.00 83 1028.8
20190920072029 49 273 7.0 8.0 0.00 0.00 0.00 84 1028.7
20190920071030 49 280 6.0 7.0 0.00 0.00 0.00 84 1028.6
20190920070040 48 277 7.0 7.0 0.00 0.00 0.00 84 1028.5
20190920065046 48 262 8.0 9.0 0.00 0.00 0.00 85 1028.3
20190920065029 48 267 7.0 8.0 0.00 0.00 0.00 85 1028.3
20190920064027 48 263 7.0 8.0 0.00 0.00 0.00 84 1028.5
20190920063036 47 253 7.0 8.0 0.00 0.00 0.00 84 1028.2
20190920062028 47 265 6.0 8.0 0.00 0.00 0.00 84 1028.2
20190920060041 47 267 6.0 7.0 0.00 0.00 0.00 84 1028.3
20190920055027 47 252 6.0 8.0 0.00 0.00 0.00 84 1028.1
20190920054028 47 240 6.0 8.0 0.00 0.00 0.00 84 1028.1
20190920053049 47 250 6.0 9.0 0.00 0.00 0.00 84 1028.0
20190920052029 47 243 6.0 8.0 0.00 0.00 0.00 84 1028.1
20190920051031 47 246 5.0 9.0 0.00 0.00 0.00 84 1028.1
20190920050051 47 242 6.0 8.0 0.00 0.00 0.00 84 1028.1
20190920044029 47 271 4.0 8.0 0.00 0.00 0.00 83 1028.1
20190920043038 47 274 4.0 5.0 0.00 0.00 0.00 82 1028.0
20190920042034 47 276 6.0 7.0 0.00 0.00 0.00 82 1028.1
20190920041032 47 287 5.0 6.0 0.00 0.00 0.00 82 1027.8
20190920040037 47 285 6.0 6.0 0.00 0.00 0.00 80 1028.3
20190920035031 47 267 2.0 6.0 0.00 0.00 0.00 80 1028.3
20190920034028 47 270 2.0 6.0 0.00 0.00 0.00 80 1028.0
20190920033039 47 278 2.0 3.0 0.00 0.00 0.00 80 1028.5
20190920032027 47 254 4.0 4.0 0.00 0.00 0.00 80 1028.2
20190920031032 47 259 4.0 4.0 0.00 0.00 0.00 77 1028.1
20190920030039 48 258 4.0 4.0 0.00 0.00 0.00 77 1028.1
20190920025030 48 260 5.0 6.0 0.00 0.00 0.00 76 1028.3
20190920024027 48 243 5.0 6.0 0.00 0.00 0.00 76 1028.3
20190920023035 48 256 4.0 5.0 0.00 0.00 0.00 75 1028.5
20190920022025 48 300 2.0 3.0 0.00 0.00 0.00 75 1028.5
20190920021032 48 310 2.0 3.0 0.00 0.00 0.00 74 1028.5
20190920020046 49 304 2.0 3.0 0.00 0.00 0.00 73 1028.3
20190920015027 49 261 4.0 4.0 0.00 0.00 0.00 73 1028.5
20190920013035 49 254 3.0 6.0 0.00 0.00 0.00 72 1028.5
20190920012026 49 356 1.0 6.0 0.00 0.00 0.00 72 1028.6
20190920011029 49 7 1.0 6.0 0.00 0.00 0.00 71 1028.6
20190920005029 50 4 1.0 6.0 0.00 0.00 0.00 70 1028.8
20190920004028 50 359 1.0 6.0 0.00 0.00 0.00 70 1028.6
20190920003036 50 252 1.0 2.0 0.00 0.00 0.00 70 1029.3
20190920002031 50 323 1.0 2.0 0.00 0.00 0.00 69 1028.8
20190920001029 50 317 1.0 2.0 0.00 0.00 0.00 69 1029.1
20190920000040 51 311 1.0 3.0 0.00 0.00 0.00 69 1028.7
20190919235033 51 255 2.0 3.0 0.00 0.00 0.00 69 1028.8
20190919234029 51 250 2.0 2.0 0.00 0.00 0.00 69 1028.8
20190919233046 51 239 2.0 3.0 0.00 0.00 0.00 69 1029.0
20190919232034 51 251 1.0 3.0 0.00 0.00 0.00 69 1028.8
20190919231028 51 263 1.0 2.0 0.00 0.00 0.00 69 1028.6
20190919230040 51 260 1.0 2.0 0.00 0.00 0.00 69 1028.8
20190919225038 51 257 2.0 3.0 0.00 0.00 0.00 69 1028.7
20190919224033 51 240 2.0 2.0 0.00 0.00 0.00 69 1029.0
20190919223036 51 260 2.0 6.0 0.00 0.00 0.00 69 1028.8
20190919222033 51 305 1.0 6.0 0.00 0.00 0.00 69 1028.8
20190919221031 51 292 1.0 6.0 0.00 0.00 0.00 69 1029.0
20190919220045 52 300 1.0 6.0 0.00 0.00 0.00 69 1029.0
20190919215030 52 307 1.0 5.0 0.00 0.00 0.00 69 1028.8
20190919214033 52 308 1.0 6.0 0.00 0.00 0.00 69 1028.8
20190919213034 53 301 1.0 3.0 0.00 0.00 0.00 68 1029.0
20190919212028 53 301 2.0 3.0 0.00 0.00 0.00 68 1028.8
20190919211031 53 297 2.0 3.0 0.00 0.00 0.00 68 1028.8
20190919210037 53 294 2.0 3.0 0.00 0.00 0.00 68 1028.8
20190919205028 53 307 2.0 3.0 0.00 0.00 0.00 68 1028.8
20190919204029 53 294 2.0 3.0 0.00 0.00 0.00 67 1028.7
20190919203039 54 299 2.0 7.0 0.00 0.00 0.00 66 1028.8
20190919202203 54 307 2.0 7.0 0.00 0.00 0.00 66 1028.6
20190919201029 54 292 2.0 6.0 0.00 0.00 0.00 66 1028.5